Regional Weather Roundup
Issued by NWS Sterling, VA

Home | Current Version | Previous Version | Text Only | Print | Product List | Glossary Off
Versions: 1 2 3 4 5 6 7 8 9 10 11 12 13 14 15 16 17 18 19 20 21 22 23 24 25 26 27 28 29 30 31 32 33 34 35 36 37 38 39 40 41 42 43 44 45 46 47 48 49 50

000
ASUS41 KLWX 300410
RWRLWX

REGIONAL WEATHER ROUNDUP
NATIONAL WEATHER SERVICE BALTIMORE MD/WASHINGTON DC
1200 AM EDT WED JUL 30 2014

Note: "FAIR" indicates few or no clouds below 12,000 feet
with no significant weather and/or obstructions to visibility.
 TC=TEMPERATURE CELSIUS

 * =Non NWS site. Station does not report precipitation (e.g. rain,
    snow, etc.), thunder, or fog.

DCZ001-MDZ009-015-VAZ040>042-051-053>054-300500-
WASHINGTON METRO
  /KDAA//-FT BELVOIR

CITY           SKY/WX    TMP DP  RH WIND       PRES   REMARKS
WASHINGTON NAT PTCLDY    67  48  50 NW3       30.03S
DULLES         CLEAR     53  49  86 CALM      30.04R
ANDREWS AFB    CLEAR     60  51  71 W2        30.03R
QUANTICO       CLEAR     61  56  83 NW8       30.04S
COLLEGE PARK*  CLEAR     59  54  82 CALM      30.02S
LEESBURG*      CLEAR     54  54 100 CALM      30.05R
MANASSAS*      CLEAR     55  55 100 CALM      30.04S
GAITHERSBURG*  CLEAR     54  50  87 CALM      30.07R

$$

MDZ006>007-011-014-300500-
BALTIMORE METRO

CITY           SKY/WX    TMP DP  RH WIND       PRES   REMARKS
BWI AIRPORT    MOCLDY    62  53  72 W3        30.01S
MD SCIENCE CTR   N/A     68  52  56 MISG      30.02R
MARTIN STATE   CLEAR     61  59  94 W5        30.02S
ANNAPOLIS      CLEAR     64  53  67 NW3       30.01S
FORT MEADE*    PTCLDY    54  52  94 CALM      30.04S

$$

MDZ012-015-019>023-300500-
MARYLAND EASTERN SHORE

CITY           SKY/WX    TMP DP  RH WIND       PRES   REMARKS
OCEAN CITY     CLEAR     55  53  93 CALM      30.00S
SALISBURY      NOT AVBL
BAY BRIDGE AP*   N/A     68  54  60 W6        30.01R
CAMBRIDGE*     CLEAR     59  54  82 CALM      30.00S
EASTON*        CLEAR     64  58  79 CALM      30.04S

$$

MDZ017>025-300500-
SOUTHERN MARYLAND

CITY           SKY/WX    TMP DP  RH WIND       PRES   REMARKS
PATUXENT RIVER CLEAR     59  50  72 W6        30.02R
ST INIGOES     PTCLDY    61  51  70 CALM      30.01S
LEONARDTOWN*   MOCLDY    59  50  72 CALM      30.04R

$$

MDZ003>005-300500-
NORTH CENTRAL MARYLAND

CITY           SKY/WX    TMP DP  RH WIND       PRES   REMARKS
FREDERICK*     CLEAR     55  55 100 CALM      30.06R
HAGERSTOWN APT CLEAR     62  49  62 CALM      30.03S
WESTMINSTER*   PTCLDY    59  55  88 CALM      30.03S

$$

MDZ501>502-300500-
WESTERN MARYLAND

CITY           SKY/WX    TMP DP  RH WIND       PRES   REMARKS
OAKLAND*       CLEAR     50  50 100 W3        30.10S
CUMBERLAND*    PTCLDY    55  52  88 CALM      30.10R

$$

VAZ025>031-300500-
SHENANDOAH VALLEY

CITY           SKY/WX    TMP DP  RH WIND       PRES   REMARKS
WINCHESTER*    CLEAR     54  50  87 CALM      30.05S
STAUNTON*      PTCLDY    56  51  81 CALM      30.09R

$$

WVZ021-048>050-054>055-300500-
EASTERN WEST VIRGINIA PANHANDLE

CITY           SKY/WX    TMP DP  RH WIND       PRES   REMARKS
MARTINSBURG    CLEAR     56  49  77 CALM      30.04S
PETERSBURG*    CLEAR     51  47  85 CALM      30.09R

$$

VAZ036>039-050-300500-
CENTRAL FOOTHILLS

CITY           SKY/WX    TMP DP  RH WIND       PRES   REMARKS
CHARLOTTESVILL CLOUDY    63  52  67 CALM      30.05R
ORANGE*        PTCLDY    59  52  77 CALM      30.06S

$$

VAZ055>057-300500-
NORTH AND CENTRAL PIEDMONT

CITY           SKY/WX    TMP DP  RH WIND       PRES   REMARKS
FREDERICKSBRG* CLOUDY    62  55  78 CALM      30.03S
STAFFORD*      CLEAR     55  55 100 CALM      30.08R

$$

NCZ024-NYZ072-PAZ021-071-VAZ022-071-300500-
OTHER REGIONAL OBSERVATIONS

CITY           SKY/WX    TMP DP  RH WIND       PRES   REMARKS
NEW YORK CITY  PTCLDY    67  52  58 CALM      30.00S
PHILADELPHIA   CLOUDY    70  53  54 NW7       30.00R
PITTSBURGH     CLEAR     57  52  83 CALM      30.04S
ROANOKE        PTCLDY    63  52  67 NW6       30.09R
RICHMOND       MOCLDY    69  52  54 CALM      30.03S
RALEIGH        PTCLDY    69  60  73 SE3       30.00S

$$

ANZ530>537-300500-
MARINE OBSERVATIONS

STATION/POSITION TIME  TEMP    WIND        PRES
                       AIR SEA DIR/SP/G
                 (UTC) (F)     (DEG/KT/KT) (MB)
THOMAS PT LIGHT  0400   68 77  300/  9/ 10 1016.7R
BALT KEY BRIDGE  0400   69     270/  7/  9 1015.9R
COVE POINT       0400   67     310/ 10/ 11 1016.1F
LEWISETTA        0400   69 77  340/  4/  5 1016.1F
SOLOMONS ISLAND  0400      80                N/A
PINEY POINT      0400          350/ 11/ 13   N/A

$$




USA.gov is the U.S. government's official web portal to all federal, state and local government web resources and services.